Location: *
(46.3500°N, 10.9000°E)
Time: 20:47:54
(UTC+00:00)

Explorer 7 - Pass Details

Date: 25 April 2021
Orbit: 484 x 677 km, 50.3° (Epoch: 13 May)

Event Time Altitude Azimuth Distance (km) Brightness Sun altitude
Rises 00:13:38 0° 287° (WNW) 2,817 - -29.0°
Reaches altitude 10° 00:16:17 10° 272° (W) 1,951 - -28.8°
Maximum altitude 00:19:39 21° 223° (SW) 1,410 - -28.7°
Drops below altitude 10° 00:23:07 10° 175° (S) 2,027 - -28.5°
Sets 00:25:57 0° 159° (SSE) 2,961 - -28.3°
